| time (UTC) | temp C | wind direction | speed KPH | gust KPH | rain 1hr cm | rain 24hr cm | rain mn cm | humidity % | barometer mb |
| 20260904174404 | 23 | 236 | 1.6 | 11.3 | 0.00 | 0.00 | 0.00 | 9 | 1016.5 |
| 20260904173904 | 23 | 222 | 4.8 | 12.9 | 0.00 | 0.00 | 0.00 | 11 | 1016.6 |
| 20260904172404 | 22 | 238 | 3.2 | 19.3 | 0.00 | 0.00 | 0.00 | 11 | 1016.5 |
| 20260904171904 | 22 | 225 | 1.6 | 11.3 | 0.00 | 0.00 | 0.00 | 14 | 1016.5 |
| 20260904171404 | 22 | 147 | 1.6 | 4.8 | 0.00 | 0.00 | 0.00 | 16 | 1016.5 |
| 20260904170904 | 21 | 217 | 3.2 | 9.7 | 0.00 | 0.00 | 0.00 | 14 | 1016.5 |
| 20260904170404 | 20 | 175 | 1.6 | 8.0 | 0.00 | 0.00 | 0.00 | 21 | 1016.5 |
| 20260904165904 | 20 | 212 | 1.6 | 8.0 | 0.00 | 0.00 | 0.00 | 20 | 1016.5 |
| 20260904165404 | 19 | 6 | 0.0 | 0.0 | 0.00 | 0.00 | 0.00 | 23 | 1016.5 |
| 20260904164904 | 18 | 12 | 0.0 | 0.0 | 0.00 | 0.00 | 0.00 | 28 | 1016.5 |
| 20260904163904 | 18 | 15 | 0.0 | 0.0 | 0.00 | 0.00 | 0.00 | 30 | 1016.6 |
| 20260904163404 | 17 | 15 | 0.0 | 0.0 | 0.00 | 0.00 | 0.00 | 32 | 1016.6 |
| 20260904162904 | 16 | 18 | 0.0 | 0.0 | 0.00 | 0.00 | 0.00 | 35 | 1016.7 |
| 20260904162404 | 16 | 24 | 0.0 | 3.2 | 0.00 | 0.00 | 0.00 | 33 | 1016.7 |
| 20260904161904 | 15 | 34 | 0.0 | 3.2 | 0.00 | 0.00 | 0.00 | 35 | 1016.8 |
| 20260904161404 | 15 | 36 | 0.0 | 0.0 | 0.00 | 0.00 | 0.00 | 36 | 1016.8 |
| 20260904160904 | 14 | 36 | 0.0 | 0.0 | 0.00 | 0.00 | 0.00 | 38 | 1016.8 |
| 20260904160404 | 13 | 39 | 0.0 | 0.0 | 0.00 | 0.00 | 0.00 | 40 | 1016.9 |
| 20260904155904 | 13 | 39 | 0.0 | 0.0 | 0.00 | 0.00 | 0.00 | 42 | 1016.9 |
| 20260904154904 | 12 | 39 | 0.0 | 0.0 | 0.00 | 0.00 | 0.00 | 46 | 1017.0 |
| 20260904154404 | 11 | 39 | 0.0 | 0.0 | 0.00 | 0.00 | 0.00 | 48 | 1017.1 |
| 20260904153904 | 11 | 39 | 0.0 | 0.0 | 0.00 | 0.00 | 0.00 | 50 | 1017.1 |
| 20260904153404 | 10 | 39 | 0.0 | 0.0 | 0.00 | 0.00 | 0.00 | 54 | 1017.1 |
| 20260904152904 | 9 | 39 | 0.0 | 0.0 | 0.00 | 0.00 | 0.00 | 57 | 1017.2 |
| 20260904152404 | 8 | 39 | 0.0 | 0.0 | 0.00 | 0.00 | 0.00 | 60 | 1017.2 |
| 20260904150904 | 7 | 39 | 0.0 | 0.0 | 0.00 | 0.00 | 0.00 | 67 | 1017.3 |
| 20260904150404 | 6 | 39 | 0.0 | 0.0 | 0.00 | 0.00 | 0.00 | 68 | 1017.4 |
| 20260904145904 | 6 | 39 | 1.6 | 4.8 | 0.00 | 0.00 | 0.00 | 69 | 1017.5 |
| 20260904145404 | 5 | 39 | 0.0 | 0.0 | 0.00 | 0.00 | 0.00 | 70 | 1017.5 |
| 20260904144903 | 5 | 39 | 0.0 | 0.0 | 0.00 | 0.00 | 0.00 | 71 | 1017.4 |
| 20260904143904 | 4 | 39 | 0.0 | 0.0 | 0.00 | 0.00 | 0.00 | 72 | 1017.4 |
| 20260904143404 | 4 | 39 | 0.0 | 0.0 | 0.00 | 0.00 | 0.00 | 72 | 1017.4 |
| 20260904142904 | 3 | 39 | 0.0 | 0.0 | 0.00 | 0.00 | 0.00 | 72 | 1017.4 |
| 20260904142404 | 3 | 39 | 0.0 | 0.0 | 0.00 | 0.00 | 0.00 | 72 | 1017.4 |
| 20260904141904 | 3 | 39 | 0.0 | 0.0 | 0.00 | 0.00 | 0.00 | 72 | 1017.4 |
| 20260904134904 | 3 | 39 | 0.0 | 0.0 | 0.00 | 0.00 | 0.00 | 70 | 1017.2 |
| 20260904134404 | 3 | 39 | 0.0 | 0.0 | 0.00 | 0.00 | 0.00 | 70 | 1017.1 |
| 20260904133904 | 3 | 39 | 0.0 | 0.0 | 0.00 | 0.00 | 0.00 | 69 | 1017.1 |
| 20260904133404 | 3 | 39 | 0.0 | 0.0 | 0.00 | 0.00 | 0.00 | 69 | 1017.0 |
| 20260904132904 | 3 | 39 | 0.0 | 0.0 | 0.00 | 0.00 | 0.00 | 69 | 1017.0 |
| 20260904132404 | 3 | 39 | 0.0 | 0.0 | 0.00 | 0.00 | 0.00 | 69 | 1016.9 |
| 20260904131904 | 3 | 39 | 0.0 | 0.0 | 0.00 | 0.00 | 0.00 | 69 | 1016.9 |
| 20260904131404 | 3 | 39 | 0.0 | 0.0 | 0.00 | 0.00 | 0.00 | 69 | 1016.8 |
| 20260904130904 | 3 | 39 | 0.0 | 0.0 | 0.00 | 0.00 | 0.00 | 69 | 1016.7 |
| 20260904124904 | 3 | 39 | 0.0 | 0.0 | 0.00 | 0.00 | 0.00 | 68 | 1016.4 |
| 20260904124404 | 3 | 39 | 0.0 | 0.0 | 0.00 | 0.00 | 0.00 | 68 | 1016.2 |
| 20260904123904 | 3 | 39 | 0.0 | 0.0 | 0.00 | 0.00 | 0.00 | 68 | 1016.4 |
| 20260904123404 | 3 | 39 | 0.0 | 0.0 | 0.00 | 0.00 | 0.00 | 68 | 1016.2 |
| 20260904122904 | 3 | 39 | 0.0 | 0.0 | 0.00 | 0.00 | 0.00 | 67 | 1016.2 |
| 20260904122404 | 3 | 39 | 0.0 | 0.0 | 0.00 | 0.00 | 0.00 | 68 | 1016.2 |
| 20260904121904 | 3 | 39 | 0.0 | 0.0 | 0.00 | 0.00 | 0.00 | 68 | 1016.1 |
| 20260904121404 | 3 | 39 | 0.0 | 0.0 | 0.00 | 0.00 | 0.00 | 68 | 1016.0 |
| 20260904120404 | 3 | 39 | 0.0 | 0.0 | 0.00 | 0.00 | 0.00 | 67 | 1015.9 |
| 20260904115903 | 4 | 39 | 0.0 | 0.0 | 0.00 | 0.00 | 0.00 | 68 | 1015.8 |
| 20260904115404 | 4 | 39 | 0.0 | 0.0 | 0.00 | 0.00 | 0.00 | 68 | 1015.9 |
| 20260904114904 | 4 | 39 | 0.0 | 0.0 | 0.00 | 0.00 | 0.00 | 68 | 1015.9 |
| 20260904114404 | 4 | 39 | 0.0 | 0.0 | 0.00 | 0.00 | 0.00 | 67 | 1015.9 |
| 20260904113904 | 4 | 39 | 0.0 | 0.0 | 0.00 | 0.00 | 0.00 | 67 | 1015.8 |
| 20260904113404 | 4 | 39 | 0.0 | 0.0 | 0.00 | 0.00 | 0.00 | 67 | 1015.8 |
| 20260904112904 | 4 | 39 | 0.0 | 0.0 | 0.00 | 0.00 | 0.00 | 67 | 1015.9 |
| 20260904112404 | 4 | 39 | 0.0 | 0.0 | 0.00 | 0.00 | 0.00 | 67 | 1015.8 |
| 20260904111904 | 4 | 39 | 0.0 | 0.0 | 0.00 | 0.00 | 0.00 | 67 | 1015.8 |
| 20260904111404 | 4 | 39 | 0.0 | 0.0 | 0.00 | 0.00 | 0.00 | 67 | 1015.8 |
| 20260904110404 | 4 | 39 | 0.0 | 0.0 | 0.00 | 0.00 | 0.00 | 67 | 1015.8 |
| 20260904105904 | 4 | 39 | 0.0 | 0.0 | 0.00 | 0.00 | 0.00 | 67 | 1015.8 |
| 20260904105404 | 4 | 39 | 0.0 | 0.0 | 0.00 | 0.00 | 0.00 | 67 | 1015.7 |
| 20260904104904 | 4 | 39 | 0.0 | 0.0 | 0.00 | 0.00 | 0.00 | 67 | 1015.7 |
| 20260904103904 | 5 | 39 | 0.0 | 0.0 | 0.00 | 0.00 | 0.00 | 67 | 1015.6 |
| 20260904103404 | 5 | 39 | 0.0 | 0.0 | 0.00 | 0.00 | 0.00 | 67 | 1015.6 |
| 20260904102904 | 5 | 39 | 0.0 | 0.0 | 0.00 | 0.00 | 0.00 | 67 | 1015.7 |
| 20260904101903 | 5 | 39 | 0.0 | 0.0 | 0.00 | 0.00 | 0.00 | 67 | 1015.7 |
| 20260904101404 | 5 | 39 | 0.0 | 0.0 | 0.00 | 0.00 | 0.00 | 66 | 1015.6 |
| 20260904100904 | 5 | 39 | 0.0 | 0.0 | 0.00 | 0.00 | 0.00 | 66 | 1015.6 |
| 20260904100404 | 5 | 39 | 0.0 | 0.0 | 0.00 | 0.00 | 0.00 | 66 | 1015.6 |
| 20260904095904 | 5 | 39 | 0.0 | 0.0 | 0.00 | 0.00 | 0.00 | 65 | 1015.6 |
| 20260904095404 | 5 | 39 | 0.0 | 0.0 | 0.00 | 0.00 | 0.00 | 64 | 1015.5 |
| 20260904094904 | 5 | 39 | 0.0 | 0.0 | 0.00 | 0.00 | 0.00 | 64 | 1015.4 |
| 20260904094404 | 5 | 39 | 0.0 | 0.0 | 0.00 | 0.00 | 0.00 | 63 | 1015.4 |
| 20260904093904 | 5 | 39 | 0.0 | 0.0 | 0.00 | 0.00 | 0.00 | 63 | 1015.4 |
| 20260904093404 | 5 | 39 | 0.0 | 0.0 | 0.00 | 0.00 | 0.00 | 62 | 1015.4 |
| 20260904092904 | 5 | 39 | 0.0 | 0.0 | 0.00 | 0.00 | 0.00 | 62 | 1015.4 |
| 20260904092404 | 5 | 39 | 0.0 | 0.0 | 0.00 | 0.00 | 0.00 | 62 | 1015.3 |
| 20260904091904 | 5 | 39 | 0.0 | 0.0 | 0.00 | 0.00 | 0.00 | 62 | 1015.2 |
| 20260904091404 | 5 | 39 | 0.0 | 0.0 | 0.00 | 0.00 | 0.00 | 61 | 1015.1 |
| 20260904090904 | 6 | 39 | 0.0 | 0.0 | 0.00 | 0.00 | 0.00 | 61 | 1015.1 |
| 20260904090404 | 6 | 39 | 0.0 | 0.0 | 0.00 | 0.00 | 0.00 | 60 | 1015.1 |
| 20260904085904 | 6 | 39 | 0.0 | 0.0 | 0.00 | 0.00 | 0.00 | 60 | 1015.0 |
| 20260904085404 | 6 | 39 | 0.0 | 0.0 | 0.00 | 0.00 | 0.00 | 59 | 1015.0 |
| 20260904084404 | 6 | 39 | 0.0 | 0.0 | 0.00 | 0.00 | 0.00 | 59 | 1015.1 |
| 20260904083904 | 6 | 39 | 0.0 | 0.0 | 0.00 | 0.00 | 0.00 | 58 | 1015.1 |
| 20260904083404 | 6 | 39 | 0.0 | 0.0 | 0.00 | 0.00 | 0.00 | 58 | 1015.1 |
| 20260904082904 | 7 | 39 | 0.0 | 0.0 | 0.00 | 0.00 | 0.00 | 58 | 1015.1 |
| 20260904082405 | 7 | 39 | 0.0 | 0.0 | 0.00 | 0.00 | 0.00 | 57 | 1015.0 |
| 20260904081404 | 7 | 39 | 0.0 | 0.0 | 0.00 | 0.00 | 0.00 | 57 | 1015.0 |
| 20260904080904 | 7 | 39 | 0.0 | 0.0 | 0.00 | 0.00 | 0.00 | 58 | 1015.0 |
| 20260904080404 | 7 | 39 | 0.0 | 0.0 | 0.00 | 0.00 | 0.00 | 58 | 1014.9 |
| 20260904075404 | 7 | 39 | 0.0 | 0.0 | 0.00 | 0.00 | 0.00 | 60 | 1015.0 |
| 20260904074904 | 7 | 39 | 0.0 | 0.0 | 0.00 | 0.00 | 0.00 | 60 | 1015.1 |
| 20260904074404 | 7 | 39 | 0.0 | 0.0 | 0.00 | 0.00 | 0.00 | 59 | 1015.1 |
| 20260904073904 | 7 | 39 | 0.0 | 0.0 | 0.00 | 0.00 | 0.00 | 58 | 1015.1 |
| 20260904073404 | 7 | 39 | 0.0 | 0.0 | 0.00 | 0.00 | 0.00 | 58 | 1015.2 |
| 20260904072904 | 7 | 39 | 0.0 | 0.0 | 0.00 | 0.00 | 0.00 | 58 | 1015.2 |
| 20260904072404 | 7 | 39 | 0.0 | 0.0 | 0.00 | 0.00 | 0.00 | 58 | 1015.2 |
| 20260904071404 | 7 | 39 | 0.0 | 0.0 | 0.00 | 0.00 | 0.00 | 59 | 1015.2 |
| 20260904070904 | 7 | 39 | 0.0 | 0.0 | 0.00 | 0.00 | 0.00 | 59 | 1015.3 |
| 20260904070404 | 7 | 39 | 0.0 | 0.0 | 0.00 | 0.00 | 0.00 | 60 | 1015.2 |
| 20260904065404 | 7 | 39 | 0.0 | 0.0 | 0.00 | 0.00 | 0.00 | 58 | 1015.2 |
| 20260904064904 | 7 | 39 | 0.0 | 0.0 | 0.00 | 0.00 | 0.00 | 58 | 1015.1 |
| 20260904063404 | 7 | 36 | 0.0 | 0.0 | 0.00 | 0.00 | 0.00 | 58 | 1015.1 |
| 20260904062904 | 7 | 36 | 0.0 | 0.0 | 0.00 | 0.00 | 0.00 | 58 | 1015.2 |
| 20260904062404 | 7 | 36 | 0.0 | 0.0 | 0.00 | 0.00 | 0.00 | 59 | 1015.2 |
| 20260904061904 | 7 | 36 | 0.0 | 0.0 | 0.00 | 0.00 | 0.00 | 58 | 1015.2 |
| 20260904061404 | 7 | 36 | 0.0 | 0.0 | 0.00 | 0.00 | 0.00 | 57 | 1015.2 |
| 20260904060904 | 7 | 36 | 0.0 | 0.0 | 0.00 | 0.00 | 0.00 | 56 | 1015.2 |
| 20260904060404 | 7 | 36 | 0.0 | 0.0 | 0.00 | 0.00 | 0.00 | 56 | 1015.2 |
| 20260904055904 | 7 | 36 | 0.0 | 0.0 | 0.00 | 0.00 | 0.00 | 56 | 1015.2 |
| 20260904055404 | 7 | 36 | 0.0 | 0.0 | 0.00 | 0.00 | 0.00 | 56 | 1015.2 |
| 20260904054904 | 8 | 36 | 0.0 | 0.0 | 0.00 | 0.00 | 0.00 | 56 | 1015.3 |
| 20260904053404 | 8 | 36 | 0.0 | 0.0 | 0.00 | 0.00 | 0.00 | 55 | 1015.3 |
| 20260904052904 | 8 | 36 | 0.0 | 0.0 | 0.00 | 0.00 | 0.00 | 56 | 1015.3 |
| 20260904052404 | 8 | 36 | 0.0 | 0.0 | 0.00 | 0.00 | 0.00 | 55 | 1015.3 |
| 20260904051904 | 8 | 36 | 0.0 | 0.0 | 0.00 | 0.00 | 0.00 | 55 | 1015.4 |
| 20260904051404 | 8 | 36 | 0.0 | 0.0 | 0.00 | 0.00 | 0.00 | 54 | 1015.4 |
| 20260904050904 | 8 | 36 | 0.0 | 0.0 | 0.00 | 0.00 | 0.00 | 54 | 1015.4 |
| 20260904050404 | 9 | 36 | 0.0 | 0.0 | 0.00 | 0.00 | 0.00 | 52 | 1015.4 |
| 20260904045904 | 9 | 36 | 0.0 | 0.0 | 0.00 | 0.00 | 0.00 | 52 | 1015.4 |
| 20260904045404 | 9 | 36 | 0.0 | 0.0 | 0.00 | 0.00 | 0.00 | 53 | 1015.4 |
| 20260904044904 | 10 | 36 | 0.0 | 0.0 | 0.00 | 0.00 | 0.00 | 52 | 1015.4 |
| 20260904044404 | 10 | 36 | 0.0 | 0.0 | 0.00 | 0.00 | 0.00 | 52 | 1015.4 |
| 20260904043904 | 10 | 36 | 0.0 | 0.0 | 0.00 | 0.00 | 0.00 | 51 | 1015.4 |
| 20260904043404 | 10 | 36 | 0.0 | 0.0 | 0.00 | 0.00 | 0.00 | 51 | 1015.5 |
| 20260904042904 | 10 | 36 | 0.0 | 0.0 | 0.00 | 0.00 | 0.00 | 50 | 1015.5 |
| 20260904042405 | 11 | 36 | 0.0 | 0.0 | 0.00 | 0.00 | 0.00 | 50 | 1015.5 |
| 20260904041904 | 11 | 36 | 0.0 | 0.0 | 0.00 | 0.00 | 0.00 | 50 | 1015.6 |
| 20260904040904 | 11 | 36 | 0.0 | 0.0 | 0.00 | 0.00 | 0.00 | 50 | 1015.5 |
| 20260904040404 | 11 | 36 | 0.0 | 0.0 | 0.00 | 0.00 | 0.00 | 51 | 1015.5 |
| 20260904035404 | 12 | 36 | 0.0 | 0.0 | 0.00 | 0.00 | 0.00 | 47 | 1015.4 |
| 20260904034904 | 12 | 36 | 0.0 | 0.0 | 0.00 | 0.00 | 0.00 | 45 | 1015.5 |
| 20260904033904 | 12 | 36 | 0.0 | 0.0 | 0.00 | 0.00 | 0.00 | 43 | 1015.5 |
| 20260904033404 | 13 | 36 | 0.0 | 0.0 | 0.00 | 0.00 | 0.00 | 44 | 1015.4 |
| 20260904032904 | 13 | 36 | 0.0 | 0.0 | 0.00 | 0.00 | 0.00 | 43 | 1015.4 |
| 20260904031904 | 13 | 36 | 0.0 | 0.0 | 0.00 | 0.00 | 0.00 | 39 | 1015.4 |
| 20260904030905 | 14 | 36 | 0.0 | 0.0 | 0.00 | 0.00 | 0.00 | 39 | 1015.3 |
| 20260904030406 | 14 | 36 | 0.0 | 0.0 | 0.00 | 0.00 | 0.00 | 39 | 1015.3 |
| 20260904025904 | 14 | 36 | 0.0 | 0.0 | 0.00 | 0.00 | 0.00 | 39 | 1015.2 |
| 20260904024904 | 15 | 36 | 0.0 | 0.0 | 0.00 | 0.00 | 0.00 | 38 | 1015.2 |
| 20260904023904 | 15 | 36 | 0.0 | 0.0 | 0.00 | 0.00 | 0.00 | 37 | 1015.1 |
| 20260904023404 | 16 | 36 | 0.0 | 1.6 | 0.00 | 0.00 | 0.00 | 35 | 1015.0 |
| 20260904022904 | 16 | 35 | 3.2 | 8.0 | 0.00 | 0.00 | 0.00 | 32 | 1015.1 |
| 20260904022404 | 16 | 223 | 0.0 | 0.0 | 0.00 | 0.00 | 0.00 | 34 | 1015.0 |
| 20260904021904 | 17 | 223 | 0.0 | 0.0 | 0.00 | 0.00 | 0.00 | 34 | 1015.0 |
| 20260904021404 | 17 | 223 | 0.0 | 0.0 | 0.00 | 0.00 | 0.00 | 31 | 1014.9 |
| 20260904020404 | 18 | 223 | 0.0 | 0.0 | 0.00 | 0.00 | 0.00 | 28 | 1014.9 |
| 20260904015904 | 18 | 223 | 0.0 | 0.0 | 0.00 | 0.00 | 0.00 | 27 | 1014.8 |
| 20260904015405 | 19 | 223 | 0.0 | 0.0 | 0.00 | 0.00 | 0.00 | 28 | 1014.8 |
| 20260904014904 | 20 | 223 | 0.0 | 0.0 | 0.00 | 0.00 | 0.00 | 29 | 1014.8 |
| 20260904014404 | 20 | 223 | 0.0 | 0.0 | 0.00 | 0.00 | 0.00 | 28 | 1014.7 |
| 20260904013904 | 20 | 223 | 0.0 | 0.0 | 0.00 | 0.00 | 0.00 | 26 | 1014.7 |
| 20260904013404 | 21 | 223 | 0.0 | 0.0 | 0.00 | 0.00 | 0.00 | 26 | 1014.7 |
| 20260904012904 | 21 | 223 | 0.0 | 0.0 | 0.00 | 0.00 | 0.00 | 20 | 1014.6 |
| 20260904011904 | 22 | 223 | 0.0 | 0.0 | 0.00 | 0.00 | 0.00 | 17 | 1014.6 |
| 20260904011404 | 22 | 223 | 0.0 | 0.0 | 0.00 | 0.00 | 0.00 | 13 | 1014.5 |
| 20260904010904 | 22 | 223 | 0.0 | 1.6 | 0.00 | 0.00 | 0.00 | 13 | 1014.6 |
| 20260904005904 | 22 | 227 | 0.0 | 4.8 | 0.00 | 0.00 | 0.00 | 13 | 1014.6 |
| 20260904005404 | 22 | 111 | 0.0 | 9.7 | 0.00 | 0.00 | 0.00 | 14 | 1014.6 |
| 20260904004904 | 22 | 192 | 0.0 | 0.0 | 0.00 | 0.00 | 0.00 | 13 | 1014.5 |
| 20260904004404 | 22 | 193 | 0.0 | 0.0 | 0.00 | 0.00 | 0.00 | 18 | 1014.6 |
| 20260904003904 | 22 | 217 | 0.0 | 0.0 | 0.00 | 0.00 | 0.00 | 13 | 1014.5 |
| 20260904003404 | 22 | 217 | 0.0 | 0.0 | 0.00 | 0.00 | 0.00 | 19 | 1014.6 |
| 20260904002904 | 23 | 217 | 0.0 | 0.0 | 0.00 | 0.00 | 0.00 | 14 | 1014.5 |
| 20260904001904 | 23 | 217 | 0.0 | 1.6 | 0.00 | 0.00 | 0.00 | 11 | 1014.5 |
| 20260904001404 | 23 | 217 | 3.2 | 8.0 | 0.00 | 0.00 | 0.00 | 11 | 1014.5 |
| 20260904000904 | 23 | 222 | 3.2 | 11.3 | 0.00 | 0.00 | 0.00 | 11 | 1014.5 |
| 20260904000404 | 23 | 213 | 1.6 | 11.3 | 0.00 | 0.00 | 0.00 | 13 | 1014.5 |
| 20260903235904 | 23 | 218 | 0.0 | 4.8 | 0.00 | 0.00 | 0.00 | 12 | 1014.5 |
| 20260903235404 | 23 | 219 | 0.0 | 1.6 | 0.00 | 0.00 | 0.00 | 12 | 1014.6 |
| 20260903234904 | 23 | 218 | 1.6 | 3.2 | 0.00 | 0.00 | 0.00 | 13 | 1014.7 |
| 20260903234404 | 23 | 219 | 0.0 | 3.2 | 0.00 | 0.00 | 0.00 | 12 | 1014.7 |
| 20260903233404 | 23 | 219 | 1.6 | 4.8 | 0.00 | 0.00 | 0.00 | 10 | 1014.7 |
| 20260903232904 | 24 | 221 | 0.0 | 11.3 | 0.00 | 0.00 | 0.00 | 10 | 1014.7 |
| 20260903232404 | 24 | 238 | 3.2 | 14.5 | 0.00 | 0.00 | 0.00 | 10 | 1014.7 |
| 20260903231906 | 24 | 238 | 3.2 | 4.8 | 0.00 | 0.00 | 0.00 | 11 | 1014.7 |
| 20260903231404 | 23 | 209 | 0.0 | 3.2 | 0.00 | 0.00 | 0.00 | 11 | 1014.8 |
| 20260903230904 | 23 | 209 | 1.6 | 8.0 | 0.00 | 0.00 | 0.00 | 11 | 1014.8 |
| 20260903230404 | 23 | 223 | 4.8 | 11.3 | 0.00 | 0.00 | 0.00 | 13 | 1014.8 |
| 20260903225904 | 23 | 221 | 3.2 | 8.0 | 0.00 | 0.00 | 0.00 | 12 | 1014.9 |
| 20260903225404 | 23 | 216 | 4.8 | 12.9 | 0.00 | 0.00 | 0.00 | 12 | 1014.9 |
| 20260903224904 | 23 | 232 | 1.6 | 4.8 | 0.00 | 0.00 | 0.00 | 13 | 1014.9 |
| 20260903223905 | 23 | 232 | 1.6 | 4.8 | 0.00 | 0.00 | 0.00 | 13 | 1014.9 |
| 20260903223404 | 22 | 224 | 4.8 | 11.3 | 0.00 | 0.00 | 0.00 | 12 | 1015.1 |
| 20260903222904 | 22 | 250 | 0.0 | 1.6 | 0.00 | 0.00 | 0.00 | 14 | 1015.1 |
| 20260903222404 | 22 | 248 | 3.2 | 9.7 | 0.00 | 0.00 | 0.00 | 12 | 1015.1 |
| 20260903221904 | 22 | 233 | 3.2 | 11.3 | 0.00 | 0.00 | 0.00 | 12 | 1015.3 |
| 20260903220904 | 22 | 220 | 1.6 | 8.0 | 0.00 | 0.00 | 0.00 | 14 | 1015.3 |
| 20260903220404 | 22 | 217 | 0.0 | 12.9 | 0.00 | 0.00 | 0.00 | 13 | 1015.3 |
| 20260903215904 | 22 | 219 | 3.2 | 11.3 | 0.00 | 0.00 | 0.00 | 13 | 1015.4 |
| 20260903215404 | 22 | 221 | 4.8 | 14.5 | 0.00 | 0.00 | 0.00 | 13 | 1015.4 |
| 20260903214904 | 22 | 235 | 1.6 | 11.3 | 0.00 | 0.00 | 0.00 | 14 | 1015.5 |
| 20260903214404 | 22 | 219 | 3.2 | 9.7 | 0.00 | 0.00 | 0.00 | 14 | 1015.5 |
| 20260903213904 | 22 | 241 | 0.0 | 3.2 | 0.00 | 0.00 | 0.00 | 14 | 1015.6 |
| 20260903213404 | 22 | 224 | 0.0 | 3.2 | 0.00 | 0.00 | 0.00 | 13 | 1015.6 |
| 20260903212904 | 22 | 224 | 1.6 | 11.3 | 0.00 | 0.00 | 0.00 | 13 | 1015.7 |
| 20260903212404 | 22 | 226 | 3.2 | 11.3 | 0.00 | 0.00 | 0.00 | 13 | 1015.7 |
| 20260903211904 | 22 | 217 | 0.0 | 3.2 | 0.00 | 0.00 | 0.00 | 14 | 1015.7 |
| 20260903211404 | 22 | 217 | 3.2 | 4.8 | 0.00 | 0.00 | 0.00 | 15 | 1015.7 |
| 20260903210904 | 22 | 236 | 1.6 | 4.8 | 0.00 | 0.00 | 0.00 | 12 | 1015.7 |
| 20260903210404 | 22 | 229 | 1.6 | 9.7 | 0.00 | 0.00 | 0.00 | 12 | 1015.7 |
| 20260903205904 | 23 | 254 | 0.0 | 3.2 | 0.00 | 0.00 | 0.00 | 12 | 1015.7 |
| 20260903205404 | 23 | 252 | 1.6 | 11.3 | 0.00 | 0.00 | 0.00 | 12 | 1015.8 |
| 20260903204904 | 23 | 236 | 3.2 | 11.3 | 0.00 | 0.00 | 0.00 | 12 | 1015.9 |
| 20260903204404 | 23 | 224 | 8.0 | 19.3 | 0.00 | 0.00 | 0.00 | 12 | 1015.9 |
| 20260903203404 | 23 | 182 | 0.0 | 4.8 | 0.00 | 0.00 | 0.00 | 10 | 1016.0 |
| 20260903202904 | 23 | 209 | 0.0 | 0.0 | 0.00 | 0.00 | 0.00 | 10 | 1016.0 |
| 20260903202404 | 23 | 230 | 1.6 | 4.8 | 0.00 | 0.00 | 0.00 | 12 | 1016.0 |
| 20260903201904 | 23 | 223 | 6.4 | 12.9 | 0.00 | 0.00 | 0.00 | 11 | 1016.2 |
| 20260903201404 | 23 | 239 | 0.0 | 0.0 | 0.00 | 0.00 | 0.00 | 11 | 1016.2 |
| 20260903200904 | 23 | 229 | 1.6 | 4.8 | 0.00 | 0.00 | 0.00 | 10 | 1016.3 |
| 20260903200404 | 22 | 228 | 3.2 | 11.3 | 0.00 | 0.00 | 0.00 | 11 | 1016.3 |
| 20260903195904 | 22 | 199 | 0.0 | 4.8 | 0.00 | 0.00 | 0.00 | 11 | 1016.3 |
| 20260903195404 | 22 | 215 | 8.0 | 11.3 | 0.00 | 0.00 | 0.00 | 13 | 1016.5 |
| 20260903194904 | 22 | 211 | 1.6 | 11.3 | 0.00 | 0.00 | 0.00 | 14 | 1016.5 |
| 20260903194404 | 22 | 214 | 3.2 | 12.9 | 0.00 | 0.00 | 0.00 | 12 | 1016.6 |
| 20260903193904 | 22 | 238 | 3.2 | 22.5 | 0.00 | 0.00 | 0.00 | 13 | 1016.4 |
| 20260903193404 | 22 | 246 | 3.2 | 19.3 | 0.00 | 0.00 | 0.00 | 11 | 1016.6 |
| 20260903192904 | 22 | 229 | 4.8 | 19.3 | 0.00 | 0.00 | 0.00 | 13 | 1016.6 |
| 20260903192404 | 22 | 268 | 8.0 | 19.3 | 0.00 | 0.00 | 0.00 | 13 | 1016.7 |
| 20260903191904 | 22 | 260 | 0.0 | 4.8 | 0.00 | 0.00 | 0.00 | 12 | 1016.7 |
| 20260903191404 | 22 | 231 | 1.6 | 11.3 | 0.00 | 0.00 | 0.00 | 12 | 1016.7 |
| 20260903190904 | 22 | 237 | 3.2 | 14.5 | 0.00 | 0.00 | 0.00 | 13 | 1016.9 |
| 20260903190404 | 22 | 234 | 4.8 | 14.5 | 0.00 | 0.00 | 0.00 | 14 | 1016.8 |
| 20260903185904 | 21 | 230 | 1.6 | 16.1 | 0.00 | 0.00 | 0.00 | 15 | 1016.9 |
| 20260903185404 | 21 | 228 | 8.0 | 19.3 | 0.00 | 0.00 | 0.00 | 14 | 1016.9 |
| 20260903184904 | 21 | 233 | 3.2 | 12.9 | 0.00 | 0.00 | 0.00 | 16 | 1016.9 |
| 20260903184404 | 20 | 238 | 1.6 | 14.5 | 0.00 | 0.00 | 0.00 | 16 | 1017.0 |
| 20260903183904 | 20 | 235 | 8.0 | 19.3 | 0.00 | 0.00 | 0.00 | 16 | 1017.0 |
| 20260903183405 | 20 | 222 | 4.8 | 16.1 | 0.00 | 0.00 | 0.00 | 16 | 1017.1 |
| 20260903182904 | 20 | 226 | 3.2 | 9.7 | 0.00 | 0.00 | 0.00 | 17 | 1017.2 |
| 20260903182404 | 20 | 230 | 6.4 | 16.1 | 0.00 | 0.03 | 0.00 | 17 | 1017.2 |
| 20260903181904 | 20 | 225 | 8.0 | 16.1 | 0.00 | 0.03 | 0.00 | 16 | 1017.2 |
| 20260903181404 | 19 | 233 | 6.4 | 16.1 | 0.00 | 0.03 | 0.00 | 15 | 1017.3 |
| 20260903180904 | 19 | 237 | 3.2 | 14.5 | 0.00 | 0.03 | 0.00 | 17 | 1017.4 |
| 20260903180404 | 19 | 259 | 1.6 | 14.5 | 0.00 | 0.05 | 0.00 | 17 | 1017.4 |
| 20260903175904 | 19 | 227 | 1.6 | 11.3 | 0.00 | 0.05 | 0.00 | 18 | 1017.4 |
| 20260903175404 | 19 | 216 | 4.8 | 12.9 | 0.00 | 0.05 | 0.00 | 17 | 1017.5 |
| 20260903174904 | 19 | 220 | 1.6 | 12.9 | 0.00 | 0.08 | 0.00 | 19 | 1017.5 |